Regional Weather Roundup
Issued by NWS Sioux Falls, SD

Home | Current Version | Previous Version | Text Only | Print | Product List | Glossary On
Versions: 1 2 3 4 5 6 7 8 9 10 11 12 13 14 15 16 17 18 19 20 21 22 23 24 25 26 27 28 29 30 31 32 33 34 35 36 37 38 39 40 41 42 43 44 45 46 47 48 49 50
000
ASUS43 KFSD 252110
RWRFSD

WEATHER ROUNDUP FOR SE SOUTH DAKOTA/SW MINNESOTA/NW IOWA
NATIONAL WEATHER SERVICE SIOUX FALLS SD
400 PM CDT TUE JUL 25 2017

NOTE: "FAIR" INDICATES FEW OR NO CLOUDS BELOW 12,000 FEET WITH NO
SIGNIFICANT WEATHER AND OR OBSTRUCTIONS TO VISIBILITY.


SDZ038>040-050-052>070-252200-
SOUTHEAST SOUTH DAKOTA

CITY           SKY/WX    TMP DP  RH WIND       PRES   REMARKS
BROOKINGS      MOSUNNY   90  73  58 S10       29.85F HX  98
CHAMBERLAIN    PTSUNNY  101  68  34 N9        29.81F HX 106
HURON          LGT RAIN  81  74  79 N15       29.86R
MADISON        FAIR      93  70  46 S20G26    29.87F HX  99
MITCHELL       PTSUNNY  102  67  31 S16G26    29.79F HX 107
SIOUX FALLS    CLOUDY    95  70  44 S20G30    29.87F HX 101
WINNER         FAIR     101  65  30 NW9       29.84S HX 104
YANKTON        SUNNY     98  63  31 S18G33    29.86S HX 100
$$

MNZ071-072-080-081-089-090-097-098-252200-
SOUTHWEST MINNESOTA

CITY           SKY/WX    TMP DP  RH WIND       PRES   REMARKS
FAIRMONT       SUNNY     88  75  65 S15G22    29.94F HX  97
JACKSON        SUNNY     90  70  51 S18G25    29.95F HX  95
LUVERNE        CLOUDY    90  70  51 S15G21    29.90F HX  95
MARSHALL       CLOUDY    89  76  65 SW7       29.89S HX 100
MONTEVIDEO     CLOUDY    90  72  55 SW3       29.90S HX  96
PIPESTONE      MOSUNNY   91  73  55 S17       29.90F HX 100
REDWOOD FALLS  MOSUNNY   90  74  59 SW12G20   29.89F HX  99
TRACY          SUNNY     89  76  65 SW12      29.91S HX 100
WINDOM         SUNNY     91  72  52 S18       29.92F HX  98
WORTHINGTON    SUNNY     90  73  57 S16G28    29.93F HX  98
$$

IAZ001>003-012>014-020>022-031-032-NEZ013-014-SDZ071-252200-
NORTHWEST IOWA

CITY           SKY/WX    TMP DP  RH WIND       PRES   REMARKS
CHEROKEE       SUNNY     91  72  53 S17G24    29.96S HX  99
DENISON        SUNNY     90  75  62 S15       30.00F HX 100
ESTHERVILLE    SUNNY     89  74  60 S20G28    29.95S HX  98
ORANGE CITY    SUNNY     93  73  52 S15G22    29.93F HX 102
SHELDON        SUNNY     90  75  62 S15G22    29.92F HX 100
SIOUX CITY     SUNNY     96  73  47 S12G24    29.93F HX 105
SPENCER        SUNNY     92  70  48 S18G26    29.95F HX  97
STORM LAKE     SUNNY     90  73  58 S20       29.98F HX  98
$$

ABBREVIATIONS USED IN REMARKS
   TC - TEMPERATURE IN CELSIUS
  WCI - WIND CHILL INDEX
   HX - HEAT INDEX
  VSB - VISIBILITY





USA.gov is the U.S. government's official web portal to all federal, state and local government web resources and services.